Location: Frauenhofen
(48.6667°N, 15.6333°E)
Time: 03:22:13
(UTC+00:00)

Daily predictions for brighter satellites

Satellite Brightness Start Highest point End
(mag) Time Altitude Azimuth Time Altitude Azimuth Time Altitude Azimuth
NOSS 3-2 (C) 4.5 01:55:54 40° E 01:55:54 40° E 02:00:44 10° NE
CENTAUR R/B 3.2 02:02:59 49° E 02:02:59 49° E 02:09:01 10° NE
CZ-2C R/B 3.7 02:23:48 10° NNE 02:28:25 37° E 02:29:29 33° SE
ARIANE 5 R/B 4.4 02:23:42 10° N 02:25:18 21° N 02:25:18 21° N
ISS -0.5 02:36:08 13° E 02:36:08 13° E 02:36:42 10° E
Cosmos 1697 Rocket 3.2 02:35:00 43° N 02:36:30 56° ENE 02:42:03 10° SE
Cosmos 2344 3.3 02:37:40 72° WSW 02:38:30 81° NW 02:46:46 10° NE
ADEOS II 4.3 02:34:40 10° N 02:35:25 13° N 02:35:25 13° N
Lacrosse 4 Rocket 3.1 02:42:02 29° NE 02:42:02 29° NE 02:44:12 10° NE
COSMOS 2406 3.8 02:39:30 43° SSE 02:40:45 52° ESE 02:46:14 10° NE
USA 238 DEB 3.5 02:41:03 74° NW 02:41:03 74° NW 02:48:01 10° NE
USA 238 3.5 02:41:08 75° NW 02:41:08 75° NW 02:48:07 10° NE
NOSS 3-2 (A) 3.5 02:44:26 63° NNW 02:44:26 63° NNW 02:50:41 10° NE
Lacrosse 5 rocket 3.1 02:50:06 27° E 02:50:06 27° E 02:52:21 10° ENE
ATLAS 3B R/B 3.8 02:45:39 14° S 02:50:35 37° ESE 02:56:35 10° NE
PAYLOAD A 4.2 02:49:16 10° NNE 02:54:22 71° ESE 02:55:44 49° SSE
USA 234 3.5 02:51:52 10° ENE 02:58:10 53° NNW 02:59:22 47° NW
Cosmos 1980 Rocket 3.1 02:54:36 14° NNW 02:59:11 47° NE 03:04:35 10° SE
ADEOS Rocket 2.6 02:56:13 10° SSE 03:01:42 83° WSW 03:07:23 10° NNW
ERS-2 3.5 03:02:20 10° SSE 03:04:42 35° SE 03:04:42 35° SE
Nadezhda 4 Rocket 4.3 03:00:25 10° S 03:06:26 64° E 03:12:31 10° NNE
Cosmos 2180 Rocket 4.3 03:00:29 10° NNW 03:06:45 73° W 03:12:54 10° S
Cosmos 2228 3.9 03:02:51 10° N 03:07:06 48° ENE 03:11:21 10° SSE
Geosat 4.1 03:03:16 10° SE 03:08:16 73° ENE 03:10:57 28° NNW
Cosmos 1269 Rocket 3.9 03:09:19 73° W 03:09:31 75° WNW 03:14:52 10° NNE
Cosmos 2360 4.1 03:13:18 23° NNW 03:17:00 86° ENE 03:22:41 10° SSE
Cosmos 1606 Rocket 4.1 03:13:07 10° N 03:17:33 59° ENE 03:21:58 10° SSE
Cosmos 1400 Rocket 4.1 03:15:52 10° N 03:19:37 39° ENE 03:23:17 10° SE
IDEFIX/ARIANE 42P 4.0 03:16:19 10° N 03:18:53 23° NNW 03:18:53 23° NNW
Intercosmos 24 3.7 03:24:40 10° N 03:28:38 80° E 03:32:10 10° SSE
COSMO-SKYMED 1 4.0 03:25:37 10° SE 03:29:39 39° ENE 03:33:43 10° N
Cosmos 2278 3.8 03:24:14 11° NNW 03:29:39 78° ENE 03:35:18 10° SSE
Cosmos 2322 Rocket 4.2 03:26:01 10° NNW 03:30:45 26° NE 03:35:26 10° E
MSX 4.3 03:26:47 10° N 03:32:01 37° WNW 03:32:03 37° WNW
Cosmos 1300 2.9 03:30:09 10° N 03:33:59 69° E 03:37:47 10° SSE
Cosmos 220 Rocket 3.9 03:32:31 40° NW 03:34:03 74° WSW 03:38:27 10° SSE
ALOS 2.7 03:29:34 10° NNE 03:34:14 63° ESE 03:38:52 10° S
In-Cosmos 22 4.5 03:35:42 40° WNW 03:35:44 40° WNW 03:40:54 10° N
CZ-4B R/B 1.3 03:32:45 10° SSE 03:36:12 87° ENE 03:37:08 46° N
Cosmos 1833 Rocket 2.6 03:33:50 25° SSW 03:37:17 80° WNW 03:42:58 10° NNE
Cosmos 1992 Rocket 3.8 03:34:01 11° NNW 03:39:02 78° WSW 03:44:14 10° SSE
Cosmos 1674 4.5 03:42:36 19° NNW 03:42:36 19° NNW 03:43:58 10° N
SL-14 R/B 3.3 03:36:33 10° S 03:40:32 82° E 03:44:35 10° NNE
Cosmos 1626 1.9 03:39:55 38° SSW 03:41:15 80° WNW 03:44:58 10° N
Cosmos 1689 Rocket 3.5 03:41:19 10° SE 03:44:04 38° ENE 03:46:49 10° N
NOSS 3-2 (C) 3.8 03:43:22 34° W 03:45:33 47° NW 03:52:07 10° NE
deb Chang Zheng 4 3.8 03:41:31 10° NNE 03:45:46 69° ESE 03:50:00 10° S
deb Kosmos-1763 3.8 03:46:48 43° SSW 03:47:53 80° WNW 03:51:29 10° NNE
Cosmos 2058 Rocket 3.5 03:47:26 10° N 03:51:57 67° ENE 03:56:23 10° SSE
CENTAUR R/B 3.0 03:50:11 29° W 03:53:06 47° NW 04:00:15 10° NE
Cosmos 2369 3.8 03:49:30 18° NW 03:53:27 49° WSW 03:58:51 10° S
SL-19 R/B 4.5 03:50:53 10° NNE 03:53:38 48° ESE 03:56:26 10° S
Meteor 1-24 Rocket 3.7 03:51:02 10° S 03:56:41 90° WSW 04:02:36 10° NNE
Cosmos 1484 Rocket 2.6 03:52:52 10° N 03:56:45 76° WNW 04:00:32 10° SSW
CBERS 1 LM4 rocket 4.5 03:52:31 10° N 03:57:19 53° WNW 04:01:58 10° SW
Cosmos 2082 Rocket 2.1 03:54:33 10° SSW 04:00:10 90° WNW 04:05:50 10° NNE
Cosmos 1461 3.0 03:57:50 22° SW 04:00:48 76° NW 04:05:33 10° NE
Cosmos 1892 Rocket 3.5 03:57:47 10° S 04:02:08 86° E 04:06:33 10° N
Cosmos 2026 Rocket 4.2 03:57:07 10° S 04:03:29 81° E 04:09:54 10° N
PSLV R/B 4.4 04:01:15 10° N 04:04:58 29° WNW 04:05:31 28° W
CZ-2C R/B 3.1 04:02:08 10° N 04:06:34 33° WNW 04:08:51 22° WSW
SL-16 R/B 3.1 04:01:46 10° NNW 04:07:18 49° NE 04:12:47 10° SE
Cosmos 2195 Rocket 4.4 04:02:16 10° S 04:08:28 82° W 04:14:40 10° N
USA 290 2.1 04:06:41 19° SW 04:08:49 67° WNW 04:12:04 10° NNE
CREW DRAGON DEMO-1 DEB 2.7 04:08:42 40° WNW 04:09:40 89° SSE 04:12:41 10° ESE
ISS -3.8 04:09:06 33° WSW 04:10:29 85° NNW 04:13:52 10° ENE
Cosmos 2251 Rocket 3.5 04:05:59 10° SSW 04:11:20 76° WNW 04:16:43 10° NNE
SKYMED 2 3.5 04:13:18 10° S 04:17:38 72° WSW 04:22:00 10° NNW
Lacrosse 4 Rocket 2.7 04:18:22 20° WNW 04:19:13 21° NW 04:22:23 10° N
Cosmos 1697 Rocket 3.6 04:16:50 16° WNW 04:20:07 27° WSW 04:24:46 10° SSW
PSLV R/B 3.9 04:16:09 10° S 04:20:21 76° WSW 04:24:36 10° NNW
Meteor 1-31 Rocket 2.8 04:17:36 10° N 04:21:28 55° WNW 04:25:19 10° SSW
Cosmos 1455 3.2 04:18:25 10° N 04:22:12 50° ENE 04:25:58 10° SSE
COSMOS 2406 3.9 04:21:37 17° WSW 04:25:18 33° NW 04:30:24 10° NNE
CZ-4B R/B 2.9 04:22:10 10° NNE 04:26:13 87° WNW 04:30:26 10° SSW
Cosmos 1626 Rocket 4.4 04:21:52 10° S 04:26:13 55° E 04:30:37 10° NNE
[s.n.46727] 2.4 04:25:26 22° WSW 04:27:04 88° SSE 04:29:50 10° ENE
[s.n.46723] 2.5 04:25:27 21° WSW 04:27:09 88° SSE 04:29:58 10° ENE
[s.n.46707] 2.5 04:25:36 21° WSW 04:27:15 88° SE 04:30:00 10° ENE
[s.n.46708] 2.4 04:25:41 21° WSW 04:27:20 88° SSE 04:30:06 10° ENE
[s.n.46719] 2.5 04:25:47 21° WSW 04:27:26 88° SE 04:30:12 10° ENE
[s.n.46724] 2.4 04:25:52 21° WSW 04:27:31 88° SSE 04:30:17 10° ENE
[s.n.46687] 2.4 04:25:57 21° WSW 04:27:36 88° SSE 04:30:22 10° ENE
[s.n.46696] 2.4 04:26:02 21° WSW 04:27:42 88° SSE 04:30:27 10° ENE
[s.n.46720] 2.4 04:26:08 21° WSW 04:27:48 89° SE 04:30:33 10° ENE
[s.n.46676] 2.5 04:26:12 21° WSW 04:27:53 89° SE 04:30:38 10° ENE
[s.n.46721] 2.4 04:26:18 21° WSW 04:27:58 89° SE 04:30:44 10° ENE
Lacrosse 5 rocket 1.5 04:25:46 20° W 04:27:58 46° NNW 04:31:42 10° NE
[s.n.46728] 2.4 04:26:23 21° WSW 04:28:03 89° SSE 04:30:49 10° ENE
[s.n.46690] 2.4 04:26:28 21° WSW 04:28:09 89° SSE 04:30:55 10° ENE
[s.n.46694] 2.4 04:26:32 21° WSW 04:28:13 89° SSE 04:30:59 10° ENE
[s.n.46702] 2.4 04:26:39 21° WSW 04:28:20 89° ESE 04:31:06 10° ENE
[s.n.46679] 2.4 04:26:42 21° WSW 04:28:24 89° ESE 04:31:10 10° ENE
Meteor 2-5 Rocket 4.1 04:23:00 10° SW 04:28:24 43° WNW 04:33:58 10° N
[s.n.46704] 2.5 04:26:44 20° WSW 04:28:29 89° ESE 04:31:17 10° ENE
[s.n.46712] 2.4 04:26:50 21° WSW 04:28:32 90° SE 04:31:18 10° ENE
[s.n.46711] 2.4 04:26:58 20° WSW 04:28:41 90° SE 04:31:26 10° ENE
FENGYUN 3A 3.9 04:23:29 10° N 04:28:42 48° WNW 04:33:54 10° SW
[s.n.46684] 2.4 04:27:00 20° WSW 04:28:43 90° SW 04:31:29 10° ENE
[s.n.46706] 2.4 04:27:09 20° WSW 04:28:52 89° NE 04:31:38 10° ENE
[s.n.46678] 2.5 04:27:07 20° WSW 04:28:53 90° W 04:31:42 10° ENE
[s.n.46677] 2.4 04:27:17 20° WSW 04:28:59 89° W 04:31:45 10° ENE
[s.n.46671] 2.4 04:27:22 20° WSW 04:29:05 90° NNW 04:31:51 10° ENE
[s.n.46675] 2.4 04:27:27 20° WSW 04:29:11 89° N 04:31:56 10° ENE
[s.n.46674] 2.4 04:27:33 20° WSW 04:29:16 89° NNW 04:32:02 10° ENE
[s.n.46698] 2.4 04:27:38 20° WSW 04:29:22 89° NNW 04:32:08 10° ENE
[s.n.46699] 2.5 04:27:39 20° WSW 04:29:25 89° WNW 04:32:14 10° ENE
[s.n.46715] 2.4 04:27:48 20° WSW 04:29:32 89° NW 04:32:18 10° ENE
[s.n.46714] 2.4 04:27:53 20° WSW 04:29:38 89° NNW 04:32:24 10° ENE
[s.n.46726] 2.4 04:27:59 20° WSW 04:29:43 89° NW 04:32:29 10° ENE
[s.n.46703] 2.4 04:28:04 20° WSW 04:29:49 89° NNW 04:32:34 10° ENE
[s.n.46713] 2.4 04:28:09 20° WSW 04:29:54 88° NNW 04:32:40 10° ENE
[s.n.46717] 2.4 04:28:14 20° WSW 04:30:00 88° NNW 04:32:46 10° ENE
Okean O Rocket 4.5 04:26:41 10° NE 04:30:04 22° E 04:33:25 10° SE
[s.n.46691] 2.5 04:28:15 19° WSW 04:30:04 88° NNW 04:32:52 10° ENE
[s.n.46693] 2.4 04:28:25 20° WSW 04:30:11 88° NNW 04:32:57 10° ENE
[s.n.46672] 2.4 04:28:30 20° WSW 04:30:16 88° NNW 04:33:02 10° ENE
[s.n.46701] 2.4 04:28:35 20° WSW 04:30:22 88° NNW 04:33:07 10° ENE
[s.n.46685] 2.4 04:28:40 20° WSW 04:30:27 88° NNW 04:33:13 10° ENE
[s.n.46709] 2.4 04:28:46 20° WSW 04:30:32 88° NNW 04:33:19 10° ENE
[s.n.46683] 2.4 04:28:50 19° WSW 04:30:37 87° NNW 04:33:23 10° ENE
[s.n.46695] 2.4 04:28:55 19° WSW 04:30:43 87° NNW 04:33:29 10° ENE
[s.n.46688] 2.4 04:29:02 19° WSW 04:30:49 87° NW 04:33:35 10° ENE
[s.n.46729] 2.4 04:29:06 19° WSW 04:30:53 87° NW 04:33:40 10° ENE
[s.n.46697] 2.4 04:29:09 19° WSW 04:30:57 87° NNW 04:33:43 10° ENE
[s.n.46725] 2.4 04:29:14 19° WSW 04:31:02 87° NNW 04:33:48 10° ENE
[s.n.46682] 2.4 04:29:19 19° WSW 04:31:07 87° NNW 04:33:53 10° ENE
[s.n.46680] 2.4 04:29:25 19° WSW 04:31:13 87° NNW 04:33:59 10° ENE
[s.n.46718] 2.4 04:29:30 19° WSW 04:31:19 87° NNW 04:34:05 10° ENE
[s.n.46710] 2.4 04:29:35 19° WSW 04:31:24 86° NNW 04:34:10 10° ENE
[s.n.46673] 2.4 04:29:46 19° WSW 04:31:35 86° NNW 04:34:21 10° ENE
Cosmos 2360 Rocket 3.6 04:26:25 10° NNW 04:31:38 37° NE 04:36:48 10° ESE
[s.n.46700] 2.4 04:29:51 19° WSW 04:31:40 86° NNW 04:34:27 10° ENE
[s.n.46705] 2.4 04:29:56 19° WSW 04:31:46 86° NNW 04:34:32 10° ENE
[s.n.46692] 2.4 04:30:02 19° WSW 04:31:52 86° NNW 04:34:39 10° ENE
[s.n.46686] 2.4 04:30:07 19° WSW 04:31:57 86° NNW 04:34:43 10° ENE
[s.n.46716] 2.4 04:30:12 19° WSW 04:32:02 85° NNW 04:34:49 10° ENE
[s.n.46722] 2.4 04:30:17 19° WSW 04:32:08 85° NNW 04:34:54 10° ENE
[s.n.46689] 2.4 04:30:23 19° WSW 04:32:14 85° NNW 04:35:00 10° ENE
[s.n.46681] 2.4 04:30:28 19° WSW 04:32:19 85° NNW 04:35:05 10° ENE
DNEPR-1 R/B 4.4 04:28:31 10° NW 04:33:49 58° NE 04:38:15 10° SE
Cosmos 1812 Rocket 4.3 04:31:07 10° N 04:35:24 55° ENE 04:39:38 10° SSE
Cosmos 1726 Rocket 4.5 04:35:31 10° NNW 04:39:18 27° W 04:43:04 10° SSW
ERS-2 3.9 04:37:49 10° WSW 04:39:17 13° W 04:39:17 13° W
USA 234 4.0 04:34:27 10° ENE 04:40:33 43° N 04:46:38 10° WNW
ATLAS 3B R/B 2.7 04:34:31 10° WSW 04:41:00 59° NW 04:47:38 10° NE
Cosmos 2098 Rocket 3.8 04:36:27 10° S 04:42:23 78° E 04:47:07 10° NNE
Cosmos 1980 Rocket 2.9 04:38:06 10° NW 04:43:01 32° WSW 04:47:55 10° SSW
Cosmos 2228 4.4 04:41:14 10° NW 04:44:17 19° W 04:47:20 10° SW
Abrixas rocket 3.7 04:43:59 12° WSW 04:45:39 19° SSW 04:47:44 10° SSE
ATLAS CENTAUR R/B 3.0 04:42:53 10° S 04:46:27 35° ESE 04:49:55 10° NE
Cosmos 1092 Rocket 4.4 04:41:55 10° SW 04:47:40 40° WNW 04:53:32 10° N
Envisat 4.0 04:42:55 10° NNE 04:47:55 53° E 04:52:51 10° S
CZ-2C R/B 4.2 04:43:02 10° SE 04:48:13 40° ENE 04:53:26 10° N
ADEOS Rocket 4.3 04:46:06 10° WSW 04:48:18 12° W 04:50:33 10° WNW
ADEOS 4.3 04:45:01 10° N 04:49:36 32° WNW 04:54:10 10° SW
Aureole 3 4.5 04:49:21 10° NNW 04:53:03 31° W 04:57:33 10° SSW
Cosmos 407 Rocket 3.5 04:48:20 10° SSW 04:53:28 88° ESE 04:58:41 10° NNE
Meteor 2-19 Rocket 4.4 04:47:42 10° SSW 04:53:48 78° W 04:59:55 10° N
CZ-3 R/B 4.1 04:42:13 10° WSW 04:55:36 23° SSW 05:01:27 10° SSE
Cosmos 1400 Rocket 4.1 04:52:59 10° NW 04:55:48 19° W 04:58:33 10° SW
Cosmos 1140 Rocket 3.7 04:51:06 10° SSW 04:56:12 76° ESE 05:01:21 10° NNE
Cosmos 2219 Rocket 4.1 04:52:57 10° NNW 04:57:39 26° NE 05:02:18 10° E
NOSS 8 (A) 4.3 04:56:56 10° WSW 05:00:01 51° NW 05:02:56 10° NNE
TELKOM 3 4.1 05:02:13 10° W 05:05:39 80° N 05:09:55 10° ENE
COSMO-SKYMED 1 3.7 05:02:24 10° SSW 05:05:56 24° W 05:09:31 10° NW
S3M 4.1 05:01:36 10° NNW 05:07:50 67° W 05:14:08 10° S
Cosmos 2315 Rocket 4.5 05:01:54 10° N 05:08:09 69° ENE 05:14:25 10° SSE
Cosmos 1655 Rocket 4.0 05:05:01 10° SSW 05:11:19 78° W 05:17:42 10° N
